Location: Zagreb
(45.8000°N, 16.0000°E)
Time: 01:58:12
(UTC+02:00)

Transit 2A Rocket - Pass Details

Date: 27 January 2022
Orbit: 592 x 909 km, 66.7° (Epoch: 26 May)

Event Time Altitude Azimuth Distance (km) Brightness Sun altitude
Rises 21:20:45 0° 287° (WNW) 3,543 9.2 -45.8°
Reaches altitude 10° 21:25:09 10° 317° (NW) 2,594 8.2 -46.5°
Enters shadow 21:25:55 11° 324° (NW) 2,504 8.1 -46.6°
Maximum altitude 21:27:31 12° 340° (NNW) 2,418 - -46.9°
Drops below altitude 10° 21:29:52 10° 3° (N) 2,562 - -47.2°
Sets 21:34:10 0° 33° (NNE) 3,449 - -47.9°
